| time (UTC) | temp F | wind direction | speed MPH | gust MPH | rain 1hr in | rain 24hr in | rain mn in | humidity % | barometer mb |
| 20260505230003 | 60 | 191 | 8.0 | 16.0 | 0.00 | 0.00 | 0.00 | 80 | 1010.0 |
| 20260505225403 | 60 | 193 | 9.0 | 16.0 | 0.00 | 0.00 | 0.00 | 80 | 1010.2 |
| 20260505224503 | 60 | 188 | 8.0 | 19.0 | 0.00 | 0.00 | 0.00 | 80 | 1009.9 |
| 20260505223603 | 61 | 178 | 8.0 | 15.0 | 0.00 | 0.00 | 0.00 | 79 | 1010.0 |
| 20260505222703 | 61 | 186 | 7.0 | 13.0 | 0.00 | 0.00 | 0.00 | 79 | 1009.6 |
| 20260505221803 | 61 | 181 | 7.0 | 13.0 | 0.00 | 0.00 | 0.00 | 79 | 1010.0 |
| 20260505220903 | 61 | 181 | 7.0 | 13.0 | 0.00 | 0.00 | 0.00 | 79 | 1009.8 |
| 20260505220004 | 61 | 186 | 7.0 | 17.0 | 0.00 | 0.00 | 0.00 | 79 | 1010.0 |
| 20260505215403 | 61 | 185 | 7.0 | 15.0 | 0.00 | 0.00 | 0.00 | 79 | 1009.7 |
| 20260505214503 | 62 | 187 | 7.0 | 15.0 | 0.00 | 0.00 | 0.00 | 78 | 1010.0 |
| 20260505213820 | 62 | 181 | 7.0 | 16.0 | 0.00 | 0.00 | 0.00 | 78 | 1009.9 |
| 20260505212703 | 62 | 184 | 7.0 | 15.0 | 0.00 | 0.00 | 0.00 | 78 | 1009.7 |
| 20260505211803 | 62 | 177 | 7.0 | 15.0 | 0.00 | 0.00 | 0.00 | 78 | 1009.4 |
| 20260505210903 | 62 | 185 | 7.0 | 16.0 | 0.00 | 0.00 | 0.00 | 78 | 1009.4 |
| 20260505210003 | 62 | 192 | 7.0 | 14.0 | 0.00 | 0.00 | 0.00 | 79 | 1009.6 |
| 20260505205621 | 61 | 192 | 7.0 | 14.0 | 0.00 | 0.00 | 0.00 | 79 | 1009.8 |
| 20260505204718 | 60 | 188 | 7.0 | 14.0 | 0.00 | 0.00 | 0.00 | 81 | 1009.6 |
| 20260505203603 | 60 | 183 | 7.0 | 14.0 | 0.00 | 0.00 | 0.00 | 80 | 1009.4 |
| 20260505202703 | 61 | 178 | 7.0 | 13.0 | 0.00 | 0.00 | 0.00 | 79 | 1009.6 |
| 20260505201803 | 62 | 181 | 6.0 | 11.0 | 0.00 | 0.00 | 0.00 | 79 | 1009.7 |
| 20260505200903 | 61 | 184 | 6.0 | 13.0 | 0.00 | 0.00 | 0.00 | 79 | 1009.6 |
| 20260505200003 | 62 | 178 | 6.0 | 14.0 | 0.00 | 0.00 | 0.00 | 78 | 1010.0 |
| 20260505195403 | 62 | 176 | 6.0 | 14.0 | 0.00 | 0.00 | 0.00 | 79 | 1009.7 |
| 20260505194503 | 62 | 187 | 6.0 | 14.0 | 0.00 | 0.00 | 0.00 | 78 | 1009.9 |
| 20260505193603 | 62 | 182 | 6.0 | 11.0 | 0.00 | 0.00 | 0.00 | 78 | 1010.2 |
| 20260505192918 | 62 | 184 | 5.0 | 11.0 | 0.00 | 0.00 | 0.00 | 78 | 1010.3 |
| 20260505192021 | 62 | 188 | 5.0 | 10.0 | 0.00 | 0.00 | 0.00 | 79 | 1010.7 |
| 20260505191118 | 62 | 190 | 6.0 | 11.0 | 0.00 | 0.00 | 0.00 | 78 | 1010.8 |
| 20260505190004 | 62 | 193 | 6.0 | 10.0 | 0.00 | 0.00 | 0.00 | 79 | 1010.7 |
| 20260505185617 | 62 | 193 | 6.0 | 10.0 | 0.00 | 0.00 | 0.00 | 79 | 1011.0 |
| 20260505184503 | 62 | 180 | 5.0 | 10.0 | 0.00 | 0.00 | 0.00 | 79 | 1011.1 |
| 20260505183603 | 62 | 175 | 5.0 | 10.0 | 0.00 | 0.00 | 0.00 | 80 | 1011.4 |
| 20260505182703 | 62 | 183 | 5.0 | 10.0 | 0.00 | 0.00 | 0.00 | 79 | 1011.3 |
| 20260505181803 | 62 | 178 | 5.0 | 10.0 | 0.00 | 0.00 | 0.00 | 79 | 1011.2 |
| 20260505180903 | 61 | 187 | 5.0 | 10.0 | 0.00 | 0.00 | 0.00 | 80 | 1011.5 |
| 20260505180221 | 62 | 189 | 4.0 | 10.0 | 0.00 | 0.00 | 0.00 | 80 | 1011.7 |
| 20260505175403 | 62 | 179 | 4.0 | 9.0 | 0.00 | 0.00 | 0.00 | 79 | 1011.8 |
| 20260505174503 | 61 | 187 | 4.0 | 9.0 | 0.00 | 0.00 | 0.00 | 81 | 1011.9 |
| 20260505173603 | 61 | 193 | 4.0 | 8.0 | 0.00 | 0.00 | 0.00 | 80 | 1012.0 |
| 20260505172703 | 62 | 187 | 3.0 | 6.0 | 0.00 | 0.00 | 0.00 | 80 | 1012.2 |
| 20260505171803 | 61 | 182 | 3.0 | 7.0 | 0.00 | 0.00 | 0.00 | 81 | 1012.3 |
| 20260505170903 | 61 | 183 | 3.0 | 6.0 | 0.00 | 0.00 | 0.00 | 81 | 1012.2 |
| 20260505170003 | 61 | 191 | 4.0 | 8.0 | 0.00 | 0.00 | 0.00 | 82 | 1012.2 |
| 20260505165403 | 60 | 186 | 3.0 | 8.0 | 0.00 | 0.00 | 0.00 | 82 | 1012.4 |
| 20260505164503 | 60 | 183 | 3.0 | 8.0 | 0.00 | 0.00 | 0.00 | 82 | 1012.4 |
| 20260505163603 | 60 | 191 | 4.0 | 7.0 | 0.00 | 0.00 | 0.00 | 81 | 1012.5 |
| 20260505162703 | 61 | 186 | 3.0 | 7.0 | 0.00 | 0.00 | 0.00 | 80 | 1012.5 |
| 20260505161803 | 61 | 197 | 4.0 | 7.0 | 0.00 | 0.00 | 0.00 | 80 | 1012.7 |
| 20260505160903 | 61 | 189 | 4.0 | 7.0 | 0.00 | 0.00 | 0.00 | 80 | 1012.9 |
| 20260505152703 | 61 | 187 | 3.0 | 6.0 | 0.00 | 0.00 | 0.00 | 80 | 1013.0 |
| 20260505151803 | 62 | 186 | 2.0 | 4.0 | 0.00 | 0.00 | 0.00 | 79 | 1013.1 |
| 20260505151120 | 61 | 190 | 3.0 | 4.0 | 0.00 | 0.00 | 0.00 | 81 | 1013.1 |
| 20260505124718 | 60 | 160 | 1.0 | 3.0 | 0.00 | 0.00 | 0.00 | 83 | 1013.0 |
| 20260505123603 | 60 | 151 | 1.0 | 2.0 | 0.00 | 0.00 | 0.00 | 81 | 1012.8 |
| 20260505122703 | 60 | 152 | 0.0 | 2.0 | 0.00 | 0.00 | 0.00 | 82 | 1012.8 |
| 20260505121803 | 59 | 0 | 0.0 | 0.0 | 0.00 | 0.00 | 0.00 | 86 | 1012.7 |
| 20260505120903 | 57 | 0 | 0.0 | 0.0 | 0.00 | 0.00 | 0.00 | 88 | 1012.8 |
| 20260505120220 | 56 | 166 | 0.0 | 2.0 | 0.00 | 0.00 | 0.00 | 90 | 1012.7 |
| 20260505115403 | 56 | 173 | 0.0 | 2.0 | 0.00 | 0.00 | 0.00 | 89 | 1012.8 |
| 20260505114503 | 56 | 149 | 0.0 | 1.0 | 0.00 | 0.00 | 0.00 | 89 | 1013.1 |
| 20260505113603 | 56 | 160 | 0.0 | 1.0 | 0.00 | 0.00 | 0.00 | 90 | 1012.9 |
| 20260505112918 | 56 | 148 | 0.0 | 1.0 | 0.00 | 0.00 | 0.00 | 91 | 1012.9 |
| 20260505111803 | 56 | 133 | 0.0 | 2.0 | 0.00 | 0.00 | 0.00 | 90 | 1012.7 |
| 20260505111118 | 56 | 149 | 0.0 | 2.0 | 0.00 | 0.00 | 0.00 | 91 | 1012.8 |
| 20260505101803 | 53 | 179 | 1.0 | 2.0 | 0.00 | 0.00 | 0.00 | 96 | 1012.0 |
| 20260505101118 | 53 | 182 | 2.0 | 3.0 | 0.00 | 0.00 | 0.00 | 96 | 1012.0 |
| 20260505100003 | 53 | 184 | 2.0 | 3.0 | 0.00 | 0.00 | 0.00 | 96 | 1012.0 |
| 20260505095404 | 53 | 181 | 2.0 | 4.0 | 0.00 | 0.00 | 0.00 | 96 | 1011.8 |
| 20260505094720 | 53 | 175 | 1.0 | 3.0 | 0.00 | 0.00 | 0.00 | 96 | 1011.7 |
| 20260505093603 | 53 | 172 | 1.0 | 3.0 | 0.00 | 0.00 | 0.00 | 96 | 1011.8 |
| 20260505092703 | 53 | 178 | 2.0 | 3.0 | 0.00 | 0.00 | 0.00 | 96 | 1011.9 |
| 20260505092017 | 53 | 178 | 2.0 | 3.0 | 0.00 | 0.00 | 0.00 | 96 | 1011.7 |
| 20260505090903 | 53 | 172 | 1.0 | 2.0 | 0.00 | 0.00 | 0.00 | 96 | 1011.9 |
| 20260505090217 | 52 | 170 | 1.0 | 2.0 | 0.00 | 0.00 | 0.00 | 96 | 1011.8 |
| 20260505085403 | 53 | 176 | 1.0 | 2.0 | 0.00 | 0.00 | 0.00 | 96 | 1011.9 |
| 20260505084503 | 53 | 179 | 2.0 | 3.0 | 0.00 | 0.00 | 0.00 | 96 | 1011.8 |
| 20260505083603 | 53 | 173 | 1.0 | 2.0 | 0.00 | 0.00 | 0.00 | 95 | 1011.5 |
| 20260505082703 | 53 | 171 | 1.0 | 2.0 | 0.00 | 0.00 | 0.00 | 95 | 1011.8 |
| 20260505082017 | 53 | 177 | 1.0 | 4.0 | 0.00 | 0.00 | 0.00 | 95 | 1011.8 |
| 20260505081120 | 53 | 173 | 1.0 | 3.0 | 0.00 | 0.00 | 0.00 | 95 | 1012.0 |
| 20260505080003 | 53 | 179 | 2.0 | 3.0 | 0.00 | 0.00 | 0.00 | 95 | 1011.7 |
| 20260505075403 | 53 | 186 | 2.0 | 3.0 | 0.00 | 0.00 | 0.00 | 95 | 1011.9 |
| 20260505074503 | 53 | 184 | 2.0 | 4.0 | 0.00 | 0.00 | 0.00 | 94 | 1011.8 |
| 20260505073603 | 53 | 189 | 2.0 | 4.0 | 0.00 | 0.00 | 0.00 | 94 | 1011.8 |
| 20260505072703 | 53 | 191 | 2.0 | 4.0 | 0.00 | 0.00 | 0.00 | 94 | 1011.8 |
| 20260505071803 | 53 | 188 | 2.0 | 4.0 | 0.00 | 0.00 | 0.00 | 94 | 1011.8 |
| 20260505070903 | 53 | 193 | 2.0 | 4.0 | 0.00 | 0.00 | 0.00 | 94 | 1011.9 |
| 20260505070003 | 54 | 191 | 2.0 | 6.0 | 0.00 | 0.00 | 0.00 | 94 | 1011.8 |
| 20260505065403 | 54 | 190 | 2.0 | 6.0 | 0.00 | 0.00 | 0.00 | 94 | 1011.7 |
| 20260505064503 | 54 | 190 | 2.0 | 4.0 | 0.00 | 0.00 | 0.00 | 93 | 1011.9 |
| 20260505063603 | 53 | 181 | 2.0 | 4.0 | 0.00 | 0.00 | 0.00 | 93 | 1012.0 |
| 20260505062703 | 54 | 184 | 2.0 | 4.0 | 0.00 | 0.00 | 0.00 | 93 | 1012.1 |
| 20260505061803 | 54 | 185 | 3.0 | 6.0 | 0.00 | 0.00 | 0.00 | 93 | 1012.0 |
| 20260505060903 | 54 | 182 | 3.0 | 6.0 | 0.00 | 0.00 | 0.00 | 93 | 1012.0 |
| 20260505060003 | 54 | 178 | 2.0 | 4.0 | 0.00 | 0.00 | 0.00 | 93 | 1012.0 |
| 20260505055403 | 54 | 185 | 2.0 | 4.0 | 0.00 | 0.00 | 0.00 | 93 | 1012.2 |
| 20260505054503 | 54 | 186 | 3.0 | 6.0 | 0.00 | 0.00 | 0.00 | 93 | 1012.2 |
| 20260505053603 | 54 | 183 | 3.0 | 6.0 | 0.00 | 0.00 | 0.00 | 93 | 1012.2 |
| 20260505052703 | 54 | 189 | 3.0 | 6.0 | 0.00 | 0.00 | 0.00 | 93 | 1012.3 |
| 20260505051803 | 54 | 186 | 3.0 | 7.0 | 0.00 | 0.00 | 0.00 | 92 | 1012.4 |
| 20260505050903 | 54 | 183 | 3.0 | 7.0 | 0.00 | 0.00 | 0.00 | 92 | 1012.4 |
| 20260505040903 | 55 | 187 | 3.0 | 6.0 | 0.00 | 0.00 | 0.00 | 89 | 1012.6 |
| 20260505040004 | 55 | 188 | 3.0 | 7.0 | 0.00 | 0.00 | 0.00 | 89 | 1012.7 |
| 20260505035403 | 55 | 187 | 3.0 | 7.0 | 0.00 | 0.00 | 0.00 | 89 | 1012.6 |
| 20260505034503 | 55 | 183 | 3.0 | 7.0 | 0.00 | 0.00 | 0.00 | 89 | 1012.5 |
| 20260505033603 | 55 | 184 | 3.0 | 7.0 | 0.00 | 0.00 | 0.00 | 89 | 1012.6 |
| 20260505032703 | 55 | 186 | 3.0 | 6.0 | 0.00 | 0.00 | 0.00 | 89 | 1012.6 |
| 20260505031803 | 55 | 187 | 3.0 | 6.0 | 0.00 | 0.00 | 0.00 | 89 | 1012.5 |
| 20260505030903 | 55 | 191 | 3.0 | 6.0 | 0.00 | 0.00 | 0.00 | 89 | 1012.7 |
| 20260505030221 | 56 | 191 | 4.0 | 7.0 | 0.00 | 0.00 | 0.00 | 88 | 1012.7 |
| 20260505025617 | 56 | 190 | 4.0 | 7.0 | 0.00 | 0.00 | 0.00 | 88 | 1012.6 |
| 20260505024503 | 56 | 190 | 3.0 | 7.0 | 0.00 | 0.00 | 0.00 | 87 | 1012.7 |
| 20260505023603 | 55 | 189 | 3.0 | 6.0 | 0.00 | 0.00 | 0.00 | 88 | 1012.8 |
| 20260505022703 | 55 | 190 | 4.0 | 7.0 | 0.00 | 0.00 | 0.00 | 88 | 1012.7 |
| 20260505022016 | 56 | 189 | 3.0 | 6.0 | 0.00 | 0.00 | 0.00 | 88 | 1012.7 |
| 20260505021119 | 56 | 191 | 4.0 | 7.0 | 0.00 | 0.00 | 0.00 | 88 | 1012.7 |
| 20260505020221 | 56 | 194 | 4.0 | 7.0 | 0.00 | 0.00 | 0.00 | 88 | 1012.9 |
| 20260505015617 | 55 | 195 | 4.0 | 8.0 | 0.00 | 0.00 | 0.00 | 88 | 1012.7 |
| 20260505014503 | 55 | 186 | 4.0 | 8.0 | 0.00 | 0.00 | 0.00 | 88 | 1012.8 |
| 20260505013603 | 56 | 194 | 4.0 | 7.0 | 0.00 | 0.00 | 0.00 | 88 | 1012.6 |
| 20260505012703 | 56 | 190 | 4.0 | 7.0 | 0.00 | 0.00 | 0.00 | 87 | 1012.6 |
| 20260505011803 | 56 | 193 | 5.0 | 8.0 | 0.00 | 0.00 | 0.00 | 87 | 1012.4 |
| 20260505010903 | 55 | 188 | 5.0 | 9.0 | 0.00 | 0.00 | 0.00 | 88 | 1012.4 |
| 20260505010003 | 55 | 190 | 6.0 | 11.0 | 0.00 | 0.00 | 0.00 | 87 | 1012.1 |
| 20260505005403 | 55 | 188 | 6.0 | 11.0 | 0.00 | 0.00 | 0.00 | 87 | 1012.1 |
| 20260505004503 | 55 | 191 | 6.0 | 11.0 | 0.00 | 0.00 | 0.00 | 87 | 1012.3 |
| 20260505003603 | 55 | 194 | 6.0 | 11.0 | 0.00 | 0.00 | 0.00 | 87 | 1012.0 |
| 20260505002704 | 55 | 190 | 5.0 | 10.0 | 0.00 | 0.00 | 0.00 | 86 | 1011.7 |
| 20260505002018 | 55 | 187 | 5.0 | 10.0 | 0.00 | 0.00 | 0.00 | 85 | 1011.7 |
| 20260505000903 | 56 | 193 | 5.0 | 10.0 | 0.00 | 0.00 | 0.00 | 83 | 1011.5 |
| 20260505000003 | 56 | 188 | 5.0 | 10.0 | 0.00 | 0.00 | 0.00 | 82 | 1011.4 |
| 20260504235403 | 57 | 183 | 5.0 | 11.0 | 0.00 | 0.00 | 0.00 | 81 | 1011.3 |
| 20260504234721 | 57 | 187 | 5.0 | 11.0 | 0.00 | 0.00 | 0.00 | 80 | 1011.2 |
| 20260504233604 | 56 | 183 | 5.0 | 10.0 | 0.00 | 0.00 | 0.00 | 80 | 1011.1 |
| 20260504232703 | 56 | 177 | 5.0 | 9.0 | 0.00 | 0.00 | 0.00 | 81 | 1010.9 |
| 20260504232018 | 56 | 182 | 5.0 | 9.0 | 0.00 | 0.00 | 0.00 | 80 | 1010.9 |
| 20260504230903 | 56 | 172 | 5.0 | 10.0 | 0.00 | 0.00 | 0.00 | 82 | 1010.9 |